This is the latest recevied weather packets stored in our database for station/object KJ6HT. If no packets are shown the sender has not sent any weather packets the latest 10 day(s).
| Time | Temp. | Humidity | Pressure | Rain* | Wind** | Luminosity | Snow |
|---|---|---|---|---|---|---|---|
| 1777737693 | 15° C | 92% | 1013.7 hPa | 0 mm | - | - | - |
| 1777736749 | 15° C | 92% | 1013.8 hPa | 0 mm | - | - | - |
| 1777735889 | 15° C | 93% | 1014.1 hPa | 0 mm | - | - | - |
| 1777734963 | 14.44° C | 93% | 1014 hPa | 0 mm | - | - | - |
| 1777734042 | 14.44° C | 94% | 1013.9 hPa | 0 mm | - | - | - |
| 1777733179 | 14.44° C | 94% | 1013.7 hPa | 0 mm | - | - | - |
| 1777732235 | 13.89° C | 94% | 1013.9 hPa | 0 mm | - | - | - |
| 1777731385 | 13.89° C | 93% | 1013.7 hPa | 0 mm | - | - | - |
| 1777730449 | 13.89° C | 93% | 1013.7 hPa | 0 mm | - | - | - |
| 1777729505 | 13.89° C | 93% | 1013.4 hPa | 0 mm | - | - | - |
| 1777728642 | 13.89° C | 93% | 1013.3 hPa | 0 mm | - | - | - |
| 1777727787 | 13.89° C | 93% | 1013.1 hPa | 0 mm | - | - | - |
| 1777726860 | 13.89° C | 93% | 1012.7 hPa | 0 mm | - | - | - |
| 1777725947 | 13.33° C | 93% | 1012.6 hPa | 0 mm | - | - | - |
| 1777725088 | 13.33° C | 93% | 1012.5 hPa | 0 mm | - | - | - |
| 1777724143 | 13.33° C | 93% | 1012.3 hPa | 0 mm | - | - | - |
| 1777723285 | 12.78° C | 92% | 1012.1 hPa | 0 mm | - | - | - |
| 1777722349 | 13.33° C | 92% | 1012 hPa | 0 mm | - | - | - |
| 1777721423 | 13.33° C | 92% | 1012 hPa | 0 mm | - | - | - |
| 1777720577 | 13.33° C | 92% | 1012 hPa | 0 mm | - | - | - |
| 1777719645 | 13.89° C | 92% | 1011.9 hPa | 0 mm | - | - | - |
| 1777718786 | 13.89° C | 92% | 1011.9 hPa | 0 mm | - | - | - |
| 1777717842 | 13.89° C | 92% | 1011.8 hPa | 0 mm | - | - | - |
| 1777716992 | 13.89° C | 92% | 1011.9 hPa | 0 mm | - | - | - |
| 1777716059 | 13.89° C | 91% | 1011.9 hPa | 0 mm | - | - | - |
* Rain latest hour (hover to see other rain measurements)
** Current wind speed in m/s (hover to see current wind gust speed)